• In Romania
  • List of Countries
  • For 7 days
  • Water Temperature
  • Satellite Maps
  • Weather Map
  • Weather Widgets
  • user-avatar
    Login

    Hourly Weather Natitingou

    Today, 19 September, Wednesday

    Time Temperature Precipitation Wind Pressure Humidity
    00:00 +25°C° 0 mm 1 mps 718 mmHg 92%
    01:00 +24°C° 0 mm 1 mps 717 mmHg 92%
    02:00 +24°C° 0 mm 1 mps 717 mmHg 92%
    03:00 +24°C° 0 mm 1 mps 717 mmHg 93%
    04:00 +24°C° 0.3 mm 1 mps 717 mmHg 93%
    05:00 +23°C° 0.3 mm 2 mps 717 mmHg 94%
    06:00 +23°C° 0 mm 2 mps 717 mmHg 94%
    07:00 +25°C° 0.2 mm 2 mps 718 mmHg 88%
    08:00 +27°C° 0.2 mm 2 mps 718 mmHg 82%
    09:00 +28°C° 0.2 mm 2 mps 718 mmHg 76%
    10:00 +30°C° 0 mm 2 mps 718 mmHg 69%
    11:00 +31°C° 0 mm 2 mps 718 mmHg 61%
    12:00 +34°C° 0 mm 2 mps 718 mmHg 54%
    13:00 +34°C° 0 mm 2 mps 717 mmHg 54%
    14:00 +34°C° 0 mm 2 mps 717 mmHg 54%
    15:00 +35°C° 0 mm 2 mps 716 mmHg 53%
    16:00 +32°C° 0 mm 2 mps 716 mmHg 59%
    17:00 +30°C° 0 mm 1 mps 716 mmHg 65%
    18:00 +29°C° 0 mm 1 mps 716 mmHg 71%
    19:00 +28°C° 0 mm 1 mps 716 mmHg 72%
    20:00 +27°C° 0 mm 1 mps 717 mmHg 74%
    21:00 +27°C° 0 mm 1 mps 717 mmHg 75%
    22:00 +26°C° 0 mm 1 mps 717 mmHg 77%
    23:00 +26°C° 0 mm 1 mps 717 mmHg 78%

    Tomorrow, 20 September, Thursday

    Time Temperature Precipitation Wind Pressure Humidity
    00:00 +26°C° 0 mm 2 mps 717 mmHg 80%
    01:00 +25°C° 0.3 mm 2 mps 716 mmHg 82%
    02:00 +25°C° 0.3 mm 1 mps 716 mmHg 85%
    03:00 +24°C° 0.3 mm 1 mps 716 mmHg 88%
    04:00 +24°C° 0 mm 1 mps 716 mmHg 89%
    05:00 +24°C° 0 mm 1 mps 716 mmHg 91%
    06:00 +24°C° 0 mm 1 mps 716 mmHg 93%
    07:00 +25°C° 0.2 mm 2 mps 717 mmHg 87%
    08:00 +27°C° 0.2 mm 2 mps 718 mmHg 82%
    09:00 +29°C° 0.2 mm 2 mps 718 mmHg 77%
    10:00 +30°C° 1.3 mm 2 mps 718 mmHg 71%
    11:00 +31°C° 1.3 mm 2 mps 718 mmHg 65%
    12:00 +33°C° 1.3 mm 1 mps 718 mmHg 60%
    13:00 +33°C° 0 mm 1 mps 717 mmHg 58%
    14:00 +33°C° 0 mm 1 mps 716 mmHg 56%
    15:00 +33°C° 0 mm 1 mps 716 mmHg 54%
    16:00 +32°C° 0 mm 1 mps 716 mmHg 59%
    17:00 +30°C° 0 mm 1 mps 715 mmHg 65%
    18:00 +29°C° 0 mm 1 mps 715 mmHg 70%
    19:00 +28°C° 0 mm 1 mps 716 mmHg 73%
    20:00 +27°C° 0 mm 1 mps 716 mmHg 75%
    21:00 +27°C° 0 mm 1 mps 717 mmHg 77%
    22:00 +26°C° 0 mm 1 mps 717 mmHg 79%
    23:00 +26°C° 0 mm 1 mps 717 mmHg 81%

    Day after tomorrow, 21 September, Friday

    Time Temperature Precipitation Wind Pressure Humidity
    00:00 +25°C° 0 mm 1 mps 717 mmHg 83%
    01:00 +25°C° 0 mm 1 mps 716 mmHg 84%
    02:00 +25°C° 0 mm 2 mps 716 mmHg 84%
    03:00 +25°C° 0 mm 2 mps 716 mmHg 85%
    04:00 +24°C° 0 mm 2 mps 716 mmHg 86%
    05:00 +24°C° 0 mm 2 mps 716 mmHg 87%
    06:00 +24°C° 0 mm 2 mps 716 mmHg 87%
    07:00 +25°C° 0 mm 2 mps 717 mmHg 84%
    08:00 +26°C° 0 mm 2 mps 718 mmHg 81%
    09:00 +27°C° 0 mm 2 mps 718 mmHg 78%
    10:00 +29°C° 0 mm 2 mps 718 mmHg 74%
    11:00 +30°C° 0 mm 2 mps 718 mmHg 69%
    12:00 +31°C° 0 mm 2 mps 717 mmHg 64%
    13:00 +31°C° 0 mm 2 mps 717 mmHg 65%
    14:00 +30°C° 0 mm 2 mps 716 mmHg 66%
    15:00 +30°C° 0 mm 2 mps 715 mmHg 67%
    16:00 +29°C° 0 mm 2 mps 716 mmHg 71%
    17:00 +28°C° 0 mm 1 mps 716 mmHg 75%
    18:00 +27°C° 0 mm 1 mps 716 mmHg 79%
    19:00 +27°C° 0.1 mm 1 mps 716 mmHg 81%
    20:00 +26°C° 0.1 mm 1 mps 717 mmHg 82%
    21:00 +26°C° 0.1 mm 1 mps 718 mmHg 84%
    22:00 +25°C° 0 mm 1 mps 717 mmHg 84%
    23:00 +25°C° 0 mm 1 mps 717 mmHg 85%

    22 September, Saturday

    Time Temperature Precipitation Wind Pressure Humidity
    00:00 +25°C° 0 mm 1 mps 716 mmHg 85%
    01:00 +24°C° 0 mm 1 mps 716 mmHg 86%
    02:00 +24°C° 0 mm 1 mps 716 mmHg 87%
    03:00 +24°C° 0 mm 1 mps 716 mmHg 88%
    04:00 +24°C° 0 mm 1 mps 716 mmHg 89%
    05:00 +24°C° 0 mm 1 mps 716 mmHg 90%
    06:00 +24°C° 0 mm 1 mps 717 mmHg 91%
    07:00 +25°C° 0 mm 2 mps 718 mmHg 85%
    08:00 +27°C° 0 mm 2 mps 718 mmHg 80%
    09:00 +29°C° 0 mm 3 mps 719 mmHg 74%
    10:00 +29°C° 0.8 mm 3 mps 718 mmHg 72%
    11:00 +30°C° 0.8 mm 3 mps 718 mmHg 70%
    12:00 +31°C° 0.8 mm 3 mps 718 mmHg 68%
    13:00 +29°C° 5.5 mm 2 mps 717 mmHg 75%
    14:00 +28°C° 5.5 mm 2 mps 716 mmHg 83%
    15:00 +26°C° 5.5 mm 1 mps 716 mmHg 90%
    16:00 +25°C° 0.4 mm 1 mps 716 mmHg 91%
    17:00 +25°C° 0.4 mm 1 mps 716 mmHg 91%
    18:00 +24°C° 0.4 mm 1 mps 717 mmHg 92%
    19:00 +24°C° 0 mm 1 mps 717 mmHg 91%
    20:00 +24°C° 0 mm 1 mps 717 mmHg 91%
    21:00 +24°C° 0 mm 1 mps 717 mmHg 90%
    22:00 +24°C° 0.1 mm 1 mps 717 mmHg 91%
    23:00 +23°C° 0.1 mm 1 mps 717 mmHg 92%

    23 September, Sunday

    Time Temperature Precipitation Wind Pressure Humidity
    00:00 +23°C° 0.1 mm 1 mps 717 mmHg 93%
    01:00 +23°C° 0.5 mm 1 mps 717 mmHg 93%
    02:00 +23°C° 0.5 mm 1 mps 717 mmHg 94%
    03:00 +22°C° 0.5 mm 1 mps 717 mmHg 95%
    04:00 +22°C° 0 mm 1 mps 717 mmHg 95%
    05:00 +22°C° 0 mm 1 mps 717 mmHg 94%
    06:00 +23°C° 0 mm 1 mps 718 mmHg 94%
    07:00 +24°C° 0 mm 1 mps 718 mmHg 91%
    08:00 +25°C° 0 mm 2 mps 719 mmHg 88%
    09:00 +26°C° 0 mm 2 mps 719 mmHg 85%
    10:00 +27°C° 0.4 mm 2 mps 719 mmHg 81%
    11:00 +27°C° 0.4 mm 2 mps 719 mmHg 78%
    12:00 +28°C° 0.4 mm 2 mps 718 mmHg 74%
    13:00 +27°C° 1.6 mm 2 mps 718 mmHg 79%
    14:00 +26°C° 1.6 mm 2 mps 717 mmHg 83%
    15:00 +25°C° 1.6 mm 2 mps 716 mmHg 87%
    16:00 +25°C° 0 mm 1 mps 716 mmHg 88%
    17:00 +23°C° 0 mm 0 mps 716 mmHg 88%
    18:00 +22°C° 0 mm 0 mps 716 mmHg 89%
    19:00 +22°C° 0 mm 0 mps 717 mmHg 89%
    20:00 +22°C° 0 mm 0 mps 717 mmHg 89%
    21:00 +22°C° 0 mm 0 mps 718 mmHg 89%
    22:00 +21°C° 0 mm 0 mps 717 mmHg 89%
    23:00 +21°C° 0 mm 0 mps 717 mmHg 88%

    24 September, Monday

    Time Temperature Precipitation Wind Pressure Humidity
    00:00 +21°C° 0 mm 0 mps 717 mmHg 88%
    01:00 +23°C° 0 mm 1 mps 716 mmHg 88%
    02:00 +22°C° 0 mm 1 mps 716 mmHg 88%
    03:00 +22°C° 0 mm 1 mps 716 mmHg 88%
    04:00 +22°C° 0.1 mm 1 mps 716 mmHg 88%
    05:00 +22°C° 0.1 mm 1 mps 717 mmHg 89%
    06:00 +22°C° 0.1 mm 1 mps 717 mmHg 89%
    07:00 +24°C° 0 mm 2 mps 718 mmHg 84%
    08:00 +26°C° 0 mm 2 mps 718 mmHg 78%
    09:00 +28°C° 0 mm 2 mps 719 mmHg 73%
    10:00 +30°C° 0 mm 2 mps 718 mmHg 68%
    11:00 +31°C° 0 mm 2 mps 718 mmHg 63%
    12:00 +32°C° 0 mm 2 mps 717 mmHg 58%
    13:00 +32°C° 0.5 mm 2 mps 717 mmHg 60%
    14:00 +32°C° 0.5 mm 2 mps 716 mmHg 62%
    15:00 +32°C° 0.5 mm 1 mps 716 mmHg 63%
    16:00 +30°C° 0.5 mm 1 mps 716 mmHg 70%
    17:00 +29°C° 0.5 mm 1 mps 716 mmHg 76%
    18:00 +27°C° 0.5 mm 1 mps 717 mmHg 82%
    19:00 +26°C° 0.9 mm 1 mps 717 mmHg 84%
    20:00 +26°C° 0.9 mm 2 mps 717 mmHg 85%
    21:00 +25°C° 0.9 mm 2 mps 718 mmHg 87%
    22:00 +25°C° 1.8 mm 2 mps 717 mmHg 88%
    23:00 +24°C° 1.8 mm 2 mps 717 mmHg 89%
    Show more